Voltar ao catálogo

ATLAS 5 CENTAUR DEB

AtivoHEO
NORAD 44106·DEBRIS·🇺🇸 United States

Lançado Sep 17, 2014 de Cape Canaveral Space Force Station

Loading…

Próximas Passagens (próximas 24 horas)

TLE

AtualizadoSource: Space-Track

Época: Sep 9, 2026, 08:05 UTC

1 44106U 14055CB  26252.33718625 -.00000104  00000-0  00000-0 0  9998
2 44106  20.2390 135.0133 4783821 179.8356 180.3994  1.84989577 51302

Acompanhe ATLAS 5 CENTAUR DEB em tempo real com AllMySat

Download on the App Store